Time,TemperatureF,DewpointF,PressureIn,WindDirection,WindDirectionDegrees,WindSpeedMPH,WindSpeedGustMPH,Humidity,HourlyPrecipIn,Conditions,Clouds,dailyrainin,SoftwareType,DateUTC
2013-01-16 00:00:00,31.0,2.0,-100.00,NW,306,8.0,17.0,28,-99.99,,,-99.99,,2013-01-16 07:00:00,
2013-01-16 00:33:00,31.0,2.0,-100.00,NW,306,8.0,17.0,28,-99.99,,,-99.99,,2013-01-16 07:33:00,
2013-01-16 00:42:00,31.0,2.0,-100.00,NW,306,8.0,17.0,28,-99.99,,,-99.99,,2013-01-16 07:42:00,
2013-01-16 00:52:00,31.0,2.0,-100.00,NW,306,8.0,17.0,28,-99.99,,,-99.99,,2013-01-16 07:52:00,
2013-01-16 01:00:00,32.0,0.0,-100.00,WNW,296,10.0,21.0,25,-99.99,,,-99.99,,2013-01-16 08:00:00,
2013-01-16 01:33:00,32.0,0.0,-100.00,WNW,296,10.0,21.0,25,-99.99,,,-99.99,,2013-01-16 08:33:00,
2013-01-16 01:42:00,32.0,0.0,-100.00,WNW,296,10.0,21.0,25,-99.99,,,-99.99,,2013-01-16 08:42:00,
2013-01-16 01:52:00,32.0,0.0,-100.00,WNW,296,10.0,21.0,25,-99.99,,,-99.99,,2013-01-16 08:52:00,
2013-01-16 02:00:00,31.0,5.0,-100.00,West,276,3.0,14.0,32,-99.99,,,-99.99,,2013-01-16 09:00:00,
2013-01-16 02:33:00,31.0,5.0,-100.00,West,276,3.0,14.0,32,-99.99,,,-99.99,,2013-01-16 09:33:00,
2013-01-16 02:43:00,31.0,5.0,-100.00,West,276,3.0,14.0,32,-99.99,,,-99.99,,2013-01-16 09:43:00,
2013-01-16 02:52:00,31.0,5.0,-100.00,West,276,3.0,14.0,32,-99.99,,,-99.99,,2013-01-16 09:52:00,
2013-01-16 03:00:00,28.0,3.0,-100.00,WSW,246,0.0,0.0,34,-99.99,,,-99.99,,2013-01-16 10:00:00,
2013-01-16 03:32:00,28.0,3.0,-100.00,WSW,246,0.0,0.0,34,-99.99,,,-99.99,,2013-01-16 10:32:00,
2013-01-16 03:43:00,28.0,3.0,-100.00,WSW,246,0.0,0.0,34,-99.99,,,-99.99,,2013-01-16 10:43:00,
2013-01-16 03:52:00,28.0,3.0,-100.00,WSW,246,0.0,0.0,34,-99.99,,,-99.99,,2013-01-16 10:52:00,
2013-01-16 04:00:00,28.0,3.0,-100.00,West,265,0.0,2.0,32,-99.99,,,-99.99,,2013-01-16 11:00:00,
2013-01-16 04:33:00,28.0,3.0,-100.00,West,265,0.0,2.0,32,-99.99,,,-99.99,,2013-01-16 11:33:00,
2013-01-16 04:43:00,28.0,3.0,-100.00,West,265,0.0,2.0,32,-99.99,,,-99.99,,2013-01-16 11:43:00,
2013-01-16 04:53:00,28.0,3.0,-100.00,West,265,0.0,2.0,32,-99.99,,,-99.99,,2013-01-16 11:53:00,
2013-01-16 05:00:00,28.0,3.0,-100.00,West,259,2.0,6.0,32,-99.99,,,-99.99,,2013-01-16 12:00:00,
2013-01-16 05:33:00,28.0,3.0,-100.00,West,259,2.0,6.0,32,-99.99,,,-99.99,,2013-01-16 12:33:00,
2013-01-16 05:43:00,28.0,3.0,-100.00,West,259,2.0,6.0,32,-99.99,,,-99.99,,2013-01-16 12:43:00,
2013-01-16 05:53:00,28.0,3.0,-100.00,West,259,2.0,6.0,32,-99.99,,,-99.99,,2013-01-16 12:53:00,
2013-01-16 06:00:00,28.0,2.0,-100.00,West,264,1.0,7.0,32,-99.99,,,-99.99,,2013-01-16 13:00:00,
2013-01-16 06:33:00,28.0,2.0,-100.00,West,264,1.0,7.0,32,-99.99,,,-99.99,,2013-01-16 13:33:00,
2013-01-16 06:43:00,28.0,2.0,-100.00,West,264,1.0,7.0,32,-99.99,,,-99.99,,2013-01-16 13:43:00,
2013-01-16 06:53:00,28.0,2.0,-100.00,West,264,1.0,7.0,32,-99.99,,,-99.99,,2013-01-16 13:53:00,
2013-01-16 07:00:00,29.0,0.0,-100.00,West,268,0.0,2.0,28,-99.99,,,-99.99,,2013-01-16 14:00:00,
2013-01-16 07:33:00,29.0,0.0,-100.00,West,268,0.0,2.0,28,-99.99,,,-99.99,,2013-01-16 14:33:00,
2013-01-16 07:43:00,29.0,0.0,-100.00,West,268,0.0,2.0,28,-99.99,,,-99.99,,2013-01-16 14:43:00,
2013-01-16 07:53:00,29.0,0.0,-100.00,West,268,0.0,2.0,28,-99.99,,,-99.99,,2013-01-16 14:53:00,
2013-01-16 08:33:00,30.0,3.0,-100.00,West,277,3.0,7.0,30,-99.99,,,-99.99,,2013-01-16 15:33:00,
2013-01-16 09:33:00,31.0,1.0,-100.00,WNW,287,2.0,8.0,27,-99.99,,,-99.99,,2013-01-16 16:33:00,
2013-01-16 10:00:00,33.0,2.0,-100.00,WNW,288,2.0,7.0,26,-99.99,,,-99.99,,2013-01-16 17:00:00,
2013-01-16 10:33:00,33.0,2.0,-100.00,WNW,288,2.0,7.0,26,-99.99,,,-99.99,,2013-01-16 17:33:00,
2013-01-16 10:44:00,33.0,2.0,-100.00,WNW,288,2.0,7.0,26,-99.99,,,-99.99,,2013-01-16 17:44:00,
2013-01-16 10:53:00,33.0,2.0,-100.00,WNW,288,2.0,7.0,26,-99.99,,,-99.99,,2013-01-16 17:53:00,
2013-01-16 11:00:00,33.0,6.0,-100.00,West,265,2.0,7.0,30,-99.99,,,-99.99,,2013-01-16 18:00:00,
2013-01-16 11:33:00,33.0,6.0,-100.00,West,265,2.0,7.0,30,-99.99,,,-99.99,,2013-01-16 18:33:00,
2013-01-16 11:43:00,33.0,6.0,-100.00,West,265,2.0,7.0,30,-99.99,,,-99.99,,2013-01-16 18:43:00,
2013-01-16 11:53:00,33.0,6.0,-100.00,West,265,2.0,7.0,30,-99.99,,,-99.99,,2013-01-16 18:53:00,
2013-01-16 12:00:00,33.0,5.0,-100.00,West,276,1.0,7.0,30,-99.99,,,-99.99,,2013-01-16 19:00:00,
2013-01-16 12:33:00,33.0,5.0,-100.00,West,276,1.0,7.0,30,-99.99,,,-99.99,,2013-01-16 19:33:00,
2013-01-16 12:43:00,33.0,5.0,-100.00,West,276,1.0,7.0,30,-99.99,,,-99.99,,2013-01-16 19:43:00,
2013-01-16 12:53:00,33.0,5.0,-100.00,West,276,1.0,7.0,30,-99.99,,,-99.99,,2013-01-16 19:53:00,
2013-01-16 13:00:00,35.0,12.0,-100.00,West,281,0.0,3.0,37,-99.99,,,-99.99,,2013-01-16 20:00:00,
2013-01-16 13:33:00,35.0,12.0,-100.00,West,281,0.0,3.0,37,-99.99,,,-99.99,,2013-01-16 20:33:00,
2013-01-16 13:43:00,35.0,12.0,-100.00,West,281,0.0,3.0,37,-99.99,,,-99.99,,2013-01-16 20:43:00,
2013-01-16 13:53:00,35.0,12.0,-100.00,West,281,0.0,3.0,37,-99.99,,,-99.99,,2013-01-16 20:53:00,
2013-01-16 14:00:00,38.0,6.0,-100.00,West,259,0.0,0.0,24,-99.99,,,-99.99,,2013-01-16 21:00:00,
2013-01-16 14:33:00,38.0,6.0,-100.00,West,259,0.0,0.0,24,-99.99,,,-99.99,,2013-01-16 21:33:00,
2013-01-16 14:43:00,38.0,6.0,-100.00,West,259,0.0,0.0,24,-99.99,,,-99.99,,2013-01-16 21:43:00,
2013-01-16 14:53:00,38.0,6.0,-100.00,West,259,0.0,0.0,24,-99.99,,,-99.99,,2013-01-16 21:53:00,
2013-01-16 15:00:00,40.0,13.0,-100.00,West,260,0.0,0.0,33,-99.99,,,-99.99,,2013-01-16 22:00:00,
2013-01-16 15:33:00,40.0,13.0,-100.00,West,260,0.0,0.0,33,-99.99,,,-99.99,,2013-01-16 22:33:00,
2013-01-16 15:43:00,40.0,13.0,-100.00,West,260,0.0,0.0,33,-99.99,,,-99.99,,2013-01-16 22:43:00,
2013-01-16 15:52:00,40.0,13.0,-100.00,West,260,0.0,0.0,33,-99.99,,,-99.99,,2013-01-16 22:52:00,
2013-01-16 16:00:00,36.0,9.0,-100.00,WSW,254,0.0,0.0,31,-99.99,,,-99.99,,2013-01-16 23:00:00,
2013-01-16 16:33:00,36.0,9.0,-100.00,WSW,254,0.0,0.0,31,-99.99,,,-99.99,,2013-01-16 23:33:00,
2013-01-16 16:43:00,36.0,9.0,-100.00,WSW,254,0.0,0.0,31,-99.99,,,-99.99,,2013-01-16 23:43:00,
2013-01-16 16:53:00,36.0,9.0,-100.00,WSW,254,0.0,0.0,31,-99.99,,,-99.99,,2013-01-16 23:53:00,
2013-01-16 17:00:00,33.0,12.0,-100.00,WSW,254,0.0,2.0,40,-99.99,,,-99.99,,2013-01-17 00:00:00,
2013-01-16 17:33:00,33.0,12.0,-100.00,WSW,254,0.0,2.0,40,-99.99,,,-99.99,,2013-01-17 00:33:00,
2013-01-16 17:42:00,33.0,12.0,-100.00,WSW,254,0.0,2.0,40,-99.99,,,-99.99,,2013-01-17 00:42:00,
2013-01-16 17:52:00,33.0,12.0,-100.00,WSW,254,0.0,2.0,40,-99.99,,,-99.99,,2013-01-17 00:52:00,
2013-01-16 18:00:00,32.0,8.0,-100.00,West,267,0.0,2.0,35,-99.99,,,-99.99,,2013-01-17 01:00:00,
2013-01-16 18:33:00,32.0,8.0,-100.00,West,267,0.0,2.0,35,-99.99,,,-99.99,,2013-01-17 01:33:00,
2013-01-16 18:43:00,32.0,8.0,-100.00,West,267,0.0,2.0,35,-99.99,,,-99.99,,2013-01-17 01:43:00,
2013-01-16 18:52:00,32.0,8.0,-100.00,West,267,0.0,2.0,35,-99.99,,,-99.99,,2013-01-17 01:52:00,
2013-01-16 19:00:00,30.0,4.0,-100.00,West,280,0.0,2.0,32,-99.99,,,-99.99,,2013-01-17 02:00:00,
2013-01-16 19:32:00,30.0,4.0,-100.00,West,280,0.0,2.0,32,-99.99,,,-99.99,,2013-01-17 02:32:00,
2013-01-16 19:43:00,30.0,4.0,-100.00,West,280,0.0,2.0,32,-99.99,,,-99.99,,2013-01-17 02:43:00,
2013-01-16 19:52:00,30.0,4.0,-100.00,West,280,0.0,2.0,32,-99.99,,,-99.99,,2013-01-17 02:52:00,
2013-01-16 20:00:00,31.0,4.0,-100.00,West,272,0.0,2.0,31,-99.99,,,-99.99,,2013-01-17 03:00:00,
2013-01-16 20:33:00,31.0,4.0,-100.00,West,272,0.0,2.0,31,-99.99,,,-99.99,,2013-01-17 03:33:00,
2013-01-16 20:43:00,31.0,4.0,-100.00,West,272,0.0,2.0,31,-99.99,,,-99.99,,2013-01-17 03:43:00,
2013-01-16 20:52:00,31.0,4.0,-100.00,West,272,0.0,2.0,31,-99.99,,,-99.99,,2013-01-17 03:52:00,
2013-01-16 21:00:00,31.0,5.0,-100.00,West,261,0.0,0.0,32,-99.99,,,-99.99,,2013-01-17 04:00:00,
2013-01-16 21:33:00,31.0,5.0,-100.00,West,261,0.0,0.0,32,-99.99,,,-99.99,,2013-01-17 04:33:00,
2013-01-16 21:43:00,31.0,5.0,-100.00,West,261,0.0,0.0,32,-99.99,,,-99.99,,2013-01-17 04:43:00,
2013-01-16 21:52:00,31.0,5.0,-100.00,West,261,0.0,0.0,32,-99.99,,,-99.99,,2013-01-17 04:52:00,
2013-01-16 22:00:00,30.0,4.0,-100.00,West,264,0.0,0.0,33,-99.99,,,-99.99,,2013-01-17 05:00:00,
2013-01-16 22:33:00,30.0,4.0,-100.00,West,264,0.0,0.0,33,-99.99,,,-99.99,,2013-01-17 05:33:00,
2013-01-16 22:43:00,30.0,4.0,-100.00,West,264,0.0,0.0,33,-99.99,,,-99.99,,2013-01-17 05:43:00,
2013-01-16 22:53:00,30.0,4.0,-100.00,West,264,0.0,0.0,33,-99.99,,,-99.99,,2013-01-17 05:53:00,
2013-01-16 23:00:00,30.0,3.0,-100.00,WSW,257,0.0,0.0,30,-99.99,,,-99.99,,2013-01-17 06:00:00,
2013-01-16 23:33:00,30.0,3.0,-100.00,WSW,257,0.0,0.0,30,-99.99,,,-99.99,,2013-01-17 06:33:00,
2013-01-16 23:42:00,30.0,3.0,-100.00,WSW,257,0.0,0.0,30,-99.99,,,-99.99,,2013-01-17 06:42:00,
2013-01-16 23:52:00,30.0,3.0,-100.00,WSW,257,0.0,0.0,30,-99.99,,,-99.99,,2013-01-17 06:52:00,